Location: Capel Gartheli
(52.1833°N, 4.0667°W)
Time: 21:50:44
(UTC+00:00)

BREEZE M DEB (TANK) - Pass Details

Date: 18 February 2020
Orbit: 315 x 13667 km, 49.6° (Epoch: 29 March)

Event Time Altitude Azimuth Distance (km) Brightness Sun altitude
Exits shadow 05:43:49 33° 250° (WSW) 878 3.3 -16.4°
Maximum altitude 05:45:06 60° 183° (S) 721 3.3 -16.2°
Drops below altitude 10° 05:52:23 10° 106° (ESE) 3,793 8.3 -15.1°
Sets 05:58:13 0° 104° (ESE) 6,327 9.9 -14.2°
